Location: Cold Norton
(51.6667°N, 0.6667°E)
Time: 07:05:17
(UTC+00:00)

Cosmos 1072 Rocket - Pass Details

Date: 18 November 2025
Orbit: 948 x 1008 km, 82.9° (Epoch: 16 December)

Event Time Altitude Azimuth Distance (km) Brightness Sun altitude
Rises 18:15:43 0° 190° (S) 3,634 7.7 -20.2°
Reaches altitude 10° 18:18:12 10° 191° (S) 2,685 7.0 -20.6°
Maximum altitude 18:24:21 84° 280° (W) 964 4.4 -21.5°
Drops below altitude 10° 18:30:30 10° 9° (N) 2,684 6.7 -22.5°
Sets 18:33:00 0° 10° (N) 3,633 7.4 -22.8°
